CW0069 Weather Reports


Display with metric or nautical units.
time (UTC)temp
F
wind
direction
speed
MPH
gust
MPH
rain 1hr
in
rain 24hr
in
rain mn
in
humidity
%
barometer
mb
20260503180904 82 202 7.0 13.0 0.00 0.00 0.00 33 1018.4
20260503175904 82 199 6.0 12.0 0.00 0.00 0.00 31 1018.6
20260503175404 82 203 7.0 12.0 0.00 0.00 0.00 32 1018.7
20260503174904 81 225 6.0 12.0 0.00 0.00 0.00 33 1018.7
20260503174404 81 222 7.0 15.0 0.00 0.00 0.00 31 1018.9
20260503173904 81 234 7.0 14.0 0.00 0.00 0.00 33 1018.9
20260503173404 81 213 7.0 14.0 0.00 0.00 0.00 32 1019.1
20260503172904 81 204 6.0 13.0 0.00 0.00 0.00 33 1019.1
20260503172404 81 203 8.0 12.0 0.00 0.00 0.00 32 1019.2
20260503171905 81 193 9.0 13.0 0.00 0.00 0.00 32 1019.3
20260503171404 81 214 6.0 12.0 0.00 0.00 0.00 33 1019.3
20260503170904 80 200 7.0 13.0 0.00 0.00 0.00 34 1019.4
20260503170404 80 217 7.0 12.0 0.00 0.00 0.00 34 1019.5
20260503150904 72 217 5.0 8.0 0.00 0.00 0.00 45 1019.9
20260503150404 71 205 4.0 8.0 0.00 0.00 0.00 45 1019.9
20260503131404 59 170 5.0 5.0 0.00 0.00 0.00 56 1019.7
20260503130904 59 162 3.0 5.0 0.00 0.00 0.00 56 1019.6
20260503130405 58 139 2.0 5.0 0.00 0.00 0.00 58 1019.7
20260503110404 53 182 0.0 2.0 0.00 0.00 0.00 57 1018.8
20260503090404 55 181 0.0 0.0 0.00 0.00 0.00 54 1018.5
20260503081404 56 182 1.0 2.0 0.00 0.00 0.00 53 1018.4
20260503080903 57 182 1.0 2.0 0.00 0.00 0.00 52 1018.4
20260503080405 57 182 1.0 2.0 0.00 0.00 0.00 53 1018.4
20260503072904 57 186 3.0 5.0 0.00 0.00 0.00 52 1018.5
20260503071904 57 186 2.0 3.0 0.00 0.00 0.00 52 1018.5
20260503071407 58 177 2.0 3.0 0.00 0.00 0.00 51 1018.6
20260503054404 60 165 3.0 5.0 0.00 0.00 0.00 48 1018.5
20260503053404 60 168 1.0 3.0 0.00 0.00 0.00 47 1018.4
20260503052904 60 166 1.0 3.0 0.00 0.00 0.00 47 1018.5
20260503051905 61 166 2.0 3.0 0.00 0.00 0.00 47 1018.4
20260503051404 61 166 2.0 5.0 0.00 0.00 0.00 46 1018.4
20260503050904 61 167 1.0 5.0 0.00 0.00 0.00 46 1018.4
20260503050403 61 167 1.0 3.0 0.00 0.00 0.00 46 1018.4
20260503045904 61 167 1.0 3.0 0.00 0.00 0.00 45 1018.4
20260503045404 61 167 1.0 3.0 0.00 0.00 0.00 45 1018.4
20260503044904 62 167 1.0 3.0 0.00 0.00 0.00 45 1018.4
20260503044404 62 167 2.0 3.0 0.00 0.00 0.00 45 1018.4
20260503043904 62 167 1.0 3.0 0.00 0.00 0.00 44 1018.4
20260503043404 62 167 2.0 3.0 0.00 0.00 0.00 45 1018.4
20260503042904 62 167 1.0 3.0 0.00 0.00 0.00 44 1018.4
20260503042404 63 167 1.0 3.0 0.00 0.00 0.00 44 1018.4
20260503041904 63 167 1.0 5.0 0.00 0.00 0.00 44 1018.4
20260503041404 63 167 2.0 3.0 0.00 0.00 0.00 44 1018.4
20260503040904 63 167 2.0 5.0 0.00 0.00 0.00 44 1018.5
20260503035904 63 169 4.0 6.0 0.00 0.00 0.00 44 1018.5
20260503035404 64 167 3.0 5.0 0.00 0.00 0.00 44 1018.4
20260503034904 64 167 2.0 5.0 0.00 0.00 0.00 44 1018.4
20260503034405 64 167 2.0 5.0 0.00 0.00 0.00 45 1018.3
20260503033904 64 163 3.0 5.0 0.00 0.00 0.00 44 1018.4
20260503033403 64 164 3.0 5.0 0.00 0.00 0.00 45 1018.3
20260503032904 64 151 2.0 3.0 0.00 0.00 0.00 43 1018.3
20260503032403 64 152 2.0 3.0 0.00 0.00 0.00 43 1018.3
20260503031904 64 151 2.0 3.0 0.00 0.00 0.00 43 1018.3
20260503031404 64 150 1.0 3.0 0.00 0.00 0.00 42 1018.2
20260503030904 64 150 2.0 3.0 0.00 0.00 0.00 42 1018.1
20260503030408 65 151 2.0 3.0 0.00 0.00 0.00 42 1018.1
20260503025904 65 144 2.0 3.0 0.00 0.00 0.00 41 1018.1
20260503025404 65 139 1.0 3.0 0.00 0.00 0.00 41 1018.1
20260503024904 65 139 2.0 3.0 0.00 0.00 0.00 41 1018.1
20260503024403 65 135 3.0 3.0 0.00 0.00 0.00 40 1018.0
20260503023904 66 133 1.0 3.0 0.00 0.00 0.00 39 1018.0
20260503023404 66 133 2.0 3.0 0.00 0.00 0.00 38 1018.0
20260503022903 66 134 2.0 3.0 0.00 0.00 0.00 38 1017.9
20260503022404 66 134 2.0 3.0 0.00 0.00 0.00 37 1017.9
20260503021404 67 134 1.0 3.0 0.00 0.00 0.00 37 1017.7
20260503020904 67 134 2.0 3.0 0.00 0.00 0.00 36 1017.7
20260503020404 68 134 2.0 3.0 0.00 0.00 0.00 36 1017.7
20260503015904 68 134 2.0 3.0 0.00 0.00 0.00 35 1017.6
20260503015404 68 134 2.0 3.0 0.00 0.00 0.00 36 1017.6
20260503014903 69 134 1.0 3.0 0.00 0.00 0.00 34 1017.6
20260503014404 69 111 1.0 3.0 0.00 0.00 0.00 34 1017.6
20260503013404 70 111 1.0 2.0 0.00 0.00 0.00 33 1017.5
20260503012903 70 111 1.0 2.0 0.00 0.00 0.00 32 1017.5
20260503012404 71 111 1.0 2.0 0.00 0.00 0.00 32 1017.5
20260503011404 71 111 1.0 3.0 0.00 0.00 0.00 32 1017.4
20260503010904 72 27 0.0 1.0 0.00 0.00 0.00 33 1017.3
20260503010404 72 27 0.0 0.0 0.00 0.00 0.00 31 1017.3
20260503005904 72 27 1.0 2.0 0.00 0.00 0.00 31 1017.2
20260503005403 73 27 0.0 0.0 0.00 0.00 0.00 29 1017.2
20260503004903 73 27 0.0 0.0 0.00 0.00 0.00 28 1017.2
20260503004405 73 27 0.0 0.0 0.00 0.00 0.00 28 1017.1
20260503003904 73 27 0.0 0.0 0.00 0.00 0.00 28 1017.1
20260503003403 73 27 0.0 0.0 0.00 0.00 0.00 28 1017.0
20260503002403 74 27 1.0 2.0 0.00 0.00 0.00 27 1017.0
20260503000904 74 27 0.0 0.0 0.00 0.00 0.00 26 1016.9
20260502235904 75 27 1.0 2.0 0.00 0.00 0.00 28 1017.0
20260502235404 75 27 0.0 0.0 0.00 0.00 0.00 26 1017.1
20260502234904 75 27 0.0 2.0 0.00 0.00 0.00 24 1017.1
20260502234404 75 27 1.0 3.0 0.00 0.00 0.00 24 1017.1
20260502233904 76 336 0.0 0.0 0.00 0.00 0.00 24 1017.1
20260502233404 76 336 1.0 2.0 0.00 0.00 0.00 25 1017.2
20260502232904 76 336 2.0 5.0 0.00 0.00 0.00 25 1017.3
20260502232404 76 14 2.0 5.0 0.00 0.00 0.00 25 1017.2
20260502231904 76 346 3.0 5.0 0.00 0.00 0.00 26 1017.2
20260502231404 77 333 3.0 8.0 0.00 0.00 0.00 24 1017.3
20260502230906 77 32 2.0 5.0 0.00 0.00 0.00 25 1017.3
20260502230403 77 351 3.0 5.0 0.00 0.00 0.00 23 1017.3
20260502225408 77 15 4.0 7.0 0.00 0.00 0.00 26 1017.4
20260502224903 77 290 3.0 3.0 0.00 0.00 0.00 23 1017.3
20260502224404 77 11 2.0 5.0 0.00 0.00 0.00 25 1017.4
20260502223904 77 50 3.0 8.0 0.00 0.00 0.00 24 1017.4
20260502223404 77 358 5.0 9.0 0.00 0.00 0.00 23 1017.5
20260502222904 77 279 2.0 10.0 0.00 0.00 0.00 25 1017.5
20260502221904 78 271 2.0 7.0 0.00 0.00 0.00 23 1017.6
20260502221403 78 323 0.0 5.0 0.00 0.00 0.00 22 1017.5
20260502220404 78 346 5.0 8.0 0.00 0.00 0.00 23 1017.6
20260502215904 78 252 2.0 6.0 0.00 0.00 0.00 25 1017.6
20260502215404 78 249 2.0 5.0 0.00 0.00 0.00 24 1017.7
20260502214903 78 271 3.0 7.0 0.00 0.00 0.00 26 1017.7
20260502214404 78 11 2.0 9.0 0.00 0.00 0.00 25 1017.8
20260502213903 78 298 2.0 8.0 0.00 0.00 0.00 24 1017.8
20260502212904 78 282 5.0 8.0 0.00 0.00 0.00 25 1017.9
20260502211904 77 277 2.0 8.0 0.00 0.00 0.00 26 1018.0
20260502210904 76 311 4.0 9.0 0.00 0.00 0.00 25 1018.2
20260502210404 76 320 3.0 7.0 0.00 0.00 0.00 28 1018.3
20260502205904 76 39 2.0 8.0 0.00 0.00 0.00 28 1018.3
20260502205404 76 71 3.0 8.0 0.00 0.00 0.00 27 1018.4
20260502204904 76 248 4.0 8.0 0.00 0.00 0.00 25 1018.4
20260502204403 76 340 2.0 10.0 0.00 0.00 0.00 25 1018.4
20260502203404 76 342 5.0 9.0 0.00 0.00 0.00 25 1018.5
20260502201903 76 278 6.0 10.0 0.00 0.00 0.00 26 1018.7
20260502201404 76 35 3.0 10.0 0.00 0.00 0.00 27 1018.7
20260502200903 76 303 5.0 10.0 0.00 0.00 0.00 29 1018.8
20260502200403 76 334 6.0 10.0 0.00 0.00 0.00 26 1018.9
20260502195904 75 276 2.0 9.0 0.00 0.00 0.00 29 1018.9
20260502195403 75 296 5.0 8.0 0.00 0.00 0.00 27 1019.0
20260502194904 75 306 4.0 8.0 0.00 0.00 0.00 25 1019.1
20260502194404 75 283 5.0 10.0 0.00 0.00 0.00 26 1019.2
20260502193904 75 333 7.0 12.0 0.00 0.00 0.00 26 1019.2
20260502193403 75 346 5.0 9.0 0.00 0.00 0.00 26 1019.2
20260502192404 75 351 7.0 13.0 0.00 0.00 0.00 26 1019.3
20260502191903 75 347 3.0 9.0 0.00 0.00 0.00 25 1019.4
20260502191404 75 348 3.0 12.0 0.00 0.00 0.00 26 1019.5
20260502190904 75 338 3.0 12.0 0.00 0.00 0.00 26 1019.6
20260502190404 74 339 8.0 15.0 0.00 0.00 0.00 26 1019.6
20260502185904 74 280 6.0 10.0 0.00 0.00 0.00 25 1019.6
20260502185403 74 340 2.0 12.0 0.00 0.00 0.00 25 1019.7
20260502184904 74 339 7.0 13.0 0.00 0.00 0.00 24 1019.7
20260502184409 74 316 5.0 8.0 0.00 0.00 0.00 24 1019.8
20260502183403 74 285 6.0 9.0 0.00 0.00 0.00 21 1019.9
20260502182903 74 291 6.0 10.0 0.00 0.00 0.00 22 1020.0
20260502182403 74 263 7.0 10.0 0.00 0.00 0.00 21 1020.0
20260502181904 74 285 7.0 12.0 0.00 0.00 0.00 24 1020.1
20260502181404 73 342 7.0 10.0 0.00 0.00 0.00 25 1020.1